Simultaneous Nadir Overpasses (SNOs) Predictions

Prediction of SNOs between AQUA and METOP-C Satellite Orbit:

Table of predicted SNOs for the next 14.0 days since TLE Epoch: 11/26/2022
Index Date (AQUA) Time (AQUA) Lat,Lon (AQUA) SZA (AQUA ) Date (METOP-C) Time (METOP-C) Lat,Lon (METOP-C) SZA (METOP-C ) Distance(km) Time Diff (sec)
1 11/27/2022 17:26:49 -74.07, 93.48 84.81 11/27/2022 17:25:41 -74.05, 93.42 84.82 2.72 68
2 11/27/2022 18:16:17 74.14, -99.04 95.27 11/27/2022 18:16:19 74.14, -99.03 95.28 0.27 2
3 11/27/2022 19:05:44 -74.30, 68.23 84.56 11/27/2022 19:06:56 -74.33, 68.77 84.54 16.56 72
4 11/30/2022 12:10:35 74.04, -7.38 95.64 11/30/2022 12:09:22 74.04, -7.53 95.65 4.76 73
5 11/30/2022 13:00:02 -74.14, 160.03 84.25 11/30/2022 13:00:02 -74.12, 160.00 84.27 2.19 0
6 11/30/2022 13:49:30 74.22, -32.51 95.84 11/30/2022 13:50:40 74.22, -32.43 95.83 2.35 70
7 12/03/2022 06:54:20 -74.02,-108.25 83.96 12/03/2022 06:53:07 -73.96,-108.64 84.01 13.47 73
8 12/03/2022 07:43:49 74.15, 59.09 96.18 12/03/2022 07:43:43 74.16, 59.18 96.19 3.00 6
9 12/03/2022 08:33:15 -74.19,-133.37 83.77 12/03/2022 08:34:24 -74.19,-133.42 83.78 1.52 69
10 12/06/2022 01:38:03 73.85, 151.22 96.23 12/06/2022 01:36:52 73.80, 150.05 96.21 36.63 71
11 12/06/2022 02:27:34 -74.15, -41.83 83.46 12/06/2022 02:27:27 -74.12, -41.84 83.48 2.74 7
12 12/06/2022 03:17:01 74.18, 125.74 96.59 12/06/2022 03:18:06 74.18, 125.63 96.58 3.35 65
13 12/08/2022 20:21:45 -73.77, 50.48 83.54 12/08/2022 20:20:35 -73.75, 49.01 83.53 45.79 70
14 12/08/2022 21:11:19 74.17,-142.79 96.88 12/08/2022 21:11:07 74.16,-142.67 96.87 3.62 12
15 12/08/2022 22:00:45 -74.20, 24.77 83.08 12/08/2022 22:01:47 -74.23, 24.83 83.07 3.00 62



Historial Predications of SNOs between AQUA and METOP-C
